Location: River House Observatory
(37.8577°N, 76.3548°W)
Time: 21:58:57
(UTC-05:00)

Hubble Space Telescope - Pass Details

Date: 29 January 2018
Orbit: 537 x 541 km, 28.5° (Epoch: 22 February)

Event Time Altitude Azimuth Distance (km) Brightness Sun altitude
Rises 17:50:25 0° 245° (WSW) 2,669 6.9 -5.4°
Reaches altitude 10° 17:53:03 10° 230° (SW) 1,779 4.8 -5.9°
Maximum altitude 17:56:15 22° 179° (S) 1,196 2.8 -6.5°
Drops below altitude 10° 17:59:27 10° 128° (SE) 1,779 3.1 -7.1°
Enters shadow 18:01:29 - 115° (ESE) 2,457 3.7 -7.5°
